Location: Unspecified
(0.0000°N, 0.0000°E)
Time: 18:02:43
(UTC+00:00)

DMSP B5D2-3 - Pass Details

Date: 28 October 2019
Orbit: 821 x 838 km, 98.7° (Epoch: 12 November)

Event Time Altitude Azimuth Distance (km) Brightness Sun altitude
Rises 18:10:20 0° 6° (N) 3,369 8.1 -6.5°
Reaches altitude 10° 18:12:43 10° 3° (N) 2,435 7.4 -7.0°
Maximum altitude 18:18:03 64° 283° (WNW) 918 5.7 -8.3°
Drops below altitude 10° 18:23:23 10° 202° (SSW) 2,434 8.1 -9.6°
Sets 18:25:45 0° 199° (SSW) 3,367 8.8 -10.2°
